DW8004 Weather Reports


Display with metric or nautical units.
time (UTC)temp
F
wind
direction
speed
MPH
gust
MPH
rain 1hr
in
rain 24hr
in
rain mn
in
humidity
%
barometer
mb
20260505024536 47 85 0.0 0.0 0.00 0.00 0.00 75 1008.0
20260505023033 48 74 0.0 0.0 0.00 0.00 0.00 76 1008.1
20260505021539 49 69 0.0 0.0 0.00 0.00 0.00 74 1008.0
20260505020025 50 210 0.0 0.0 0.00 0.00 0.00 72 1007.9
20260505014512 51 210 0.0 0.0 0.00 0.00 0.00 70 1007.8
20260505013005 51 210 0.0 0.0 0.00 0.00 0.00 68 1007.8
20260505011551 52 237 0.0 0.0 0.00 0.00 0.00 67 1007.6
20260505010055 53 237 0.0 0.0 0.00 0.00 0.00 65 1007.6
20260505004530 54 237 0.0 0.0 0.00 0.00 0.00 66 1007.5
20260505003015 55 291 0.0 0.0 0.00 0.00 0.00 61 1007.2
20260505001633 57 315 0.0 0.0 0.00 0.00 0.00 60 1007.1
20260505000035 58 315 0.0 0.0 0.00 0.00 0.00 56 1006.9
20260504234517 60 315 0.0 0.0 0.00 0.00 0.00 52 1006.6
20260504233003 62 258 0.0 0.0 0.00 0.00 0.00 47 1006.4
20260504231507 62 277 0.0 0.0 0.00 0.00 0.00 48 1006.1
20260504230058 62 57 0.0 0.0 0.00 0.00 0.00 45 1006.0
20260504224606 63 304 0.0 0.0 0.00 0.00 0.00 47 1005.9
20260504223044 63 169 0.0 0.0 0.00 0.00 0.00 46 1005.9
20260504221555 65 161 0.0 0.0 0.00 0.00 0.00 44 1005.7
20260504220058 65 217 0.0 0.0 0.00 0.00 0.00 43 1005.8
20260504214601 65 211 0.0 0.0 0.00 0.00 0.00 44 1005.9
20260504213100 64 209 0.0 0.0 0.00 0.00 0.00 44 1006.0
20260504211508 63 325 0.0 0.0 0.00 0.00 0.00 45 1006.1
20260504210055 63 229 0.0 0.0 0.00 0.00 0.00 45 1006.1
20260504204552 62 305 0.0 0.0 0.00 0.00 0.00 46 1006.0
20260504203039 64 300 0.0 0.0 0.00 0.00 0.00 45 1006.2
20260504201531 64 233 0.0 0.0 0.00 0.00 0.00 45 1006.4
20260504200015 64 323 0.0 0.0 0.00 0.00 0.00 45 1006.4
20260504194506 64 218 0.0 0.0 0.00 0.00 0.00 44 1006.5
20260504193037 64 309 0.0 0.0 0.00 0.00 0.00 44 1006.6
20260504191506 63 225 0.0 0.0 0.00 0.00 0.00 44 1006.5
20260504190003 63 254 0.0 0.0 0.00 0.00 0.00 45 1006.7
20260504184522 63 257 0.0 0.0 0.00 0.00 0.00 44 1006.6
20260504183018 63 226 0.0 0.0 0.00 0.00 0.00 45 1006.8
20260504181503 63 226 0.0 0.0 0.00 0.00 0.00 46 1006.9
20260504180105 62 319 0.0 0.0 0.00 0.00 0.00 47 1007.0
20260504174550 61 328 0.0 0.0 0.00 0.00 0.00 47 1007.2
20260504173048 60 315 0.0 0.0 0.00 0.00 0.00 49 1007.5
20260504171631 59 219 0.0 0.0 0.00 0.00 0.00 48 1007.8
20260504170104 59 304 0.0 0.0 0.00 0.00 0.00 49 1007.5
20260504140107 54 294 0.0 0.0 0.00 0.00 0.00 52 1008.7
20260504100114 37 320 0.0 0.0 0.00 0.00 0.00 90 1009.9
20260504090111 39 320 0.0 0.0 0.00 0.00 0.00 90 1009.9
20260504081548 41 320 0.0 0.0 0.00 0.00 0.00 88 1009.9
20260504044602 43 190 0.0 0.0 0.00 0.00 0.00 67 1010.4
20260504043046 43 306 0.0 0.0 0.00 0.00 0.00 65 1010.4
20260504041512 43 246 0.0 0.0 0.00 0.00 0.00 63 1010.3
20260504040107 43 171 0.0 0.0 0.00 0.00 0.00 62 1010.3
20260504034552 43 240 0.0 0.0 0.00 0.00 0.00 60 1010.2
20260504033048 42 239 0.0 0.0 0.00 0.00 0.00 59 1010.2
20260504031515 43 256 0.0 0.0 0.00 0.00 0.00 59 1010.0
20260504030100 43 242 0.0 0.0 0.00 0.00 0.00 56 1009.9